This is the latest recevied weather packets stored in our database for station/object JO1YDG-13. If no packets are shown the sender has not sent any weather packets the latest 10 day(s).
| Time | Temp. | Humidity | Pressure | Rain* | Wind** | Luminosity | Snow |
|---|---|---|---|---|---|---|---|
| 1778023685 | 13.33° C | 70% | 995.7 hPa | 0 mm | - | - | - |
| 1778020983 | 13.33° C | 71% | 995.5 hPa | 0 mm | - | - | - |
| 1778020684 | 13.33° C | 70% | 995.5 hPa | 0 mm | - | - | - |
| 1778020383 | 13.33° C | 71% | 995.5 hPa | 0 mm | - | - | - |
| 1778020083 | 12.78° C | 72% | 995.5 hPa | 0 mm | - | - | - |
| 1778019783 | 12.78° C | 72% | 995.4 hPa | 0 mm | - | - | - |
| 1778019483 | 12.78° C | 73% | 995.4 hPa | 0 mm | - | - | - |
| 1778019185 | 12.78° C | 74% | 995.4 hPa | 0 mm | - | - | - |
| 1778018885 | 12.78° C | 73% | 995.4 hPa | 0 mm | - | - | - |
| 1778017084 | 12.22° C | 70% | 995.6 hPa | 0 mm | - | - | - |
| 1778016184 | 11.67° C | 74% | 995.5 hPa | 0 mm | - | - | - |
| 1778015585 | 11.11° C | 77% | 995.6 hPa | 0 mm | - | - | - |
| 1778015285 | 11.11° C | 77% | 995.6 hPa | 0 mm | - | - | - |
| 1778014683 | 10.56° C | 81% | 995.6 hPa | 0 mm | - | - | - |
| 1778014383 | 10.56° C | 81% | 995.6 hPa | 0 mm | - | - | - |
| 1778013484 | 10.56° C | 80% | 995.6 hPa | 0 mm | - | - | - |
| 1778013183 | 10.56° C | 80% | 995.6 hPa | 0 mm | - | - | - |
| 1778012883 | 10° C | 80% | 995.6 hPa | 0 mm | - | - | - |
| 1778012585 | 10° C | 80% | 995.6 hPa | 0 mm | - | - | - |
| 1778012285 | 10° C | 81% | 995.6 hPa | 0 mm | - | - | - |
| 1778011985 | 10° C | 81% | 995.6 hPa | 0 mm | - | - | - |
| 1778011684 | 10° C | 82% | 995.6 hPa | 0 mm | - | - | - |
| 1778011084 | 10° C | 83% | 995.3 hPa | 0 mm | - | - | - |
| 1778010784 | 10° C | 82% | 995.3 hPa | 0 mm | - | - | - |
| 1778010184 | 10° C | 82% | 995.5 hPa | 0 mm | - | - | - |
* Rain latest hour (hover to see other rain measurements)
** Current wind speed in m/s (hover to see current wind gust speed)